map of BRS home
Great Circle Mapper logo
BRS - Airport
Location
City:  Bristol, Somerset, England, United Kingdom
Name:Bristol International Airport
Old (Alt.):Lulsgate
ICAO / IATA:EGGD / BRS

Details
Type:Airport (Aerodrome, Airfield)
Use:Public/Civil, International (customs port of entry)
Latitude:5122'58"N (51.382669)
Longitude:243'09"W (-2.719088)
Datum:WGS 1984
Elevation:622 ft (190 m)
Runways:1
Longest:6598 × 151 ft (2011 × 46 m), paved

Time
Time Zone:UTC+0 (DST+1)
Local Time:

Weather
METAR:EGGD 221320Z 26010KT 9000 FEW030 SCT043 BKN049 12/08 Q1026
TAF:EGGD 221058Z 2212/2312 27015KT 9999 SCT025
BECMG 2217/2220 21012KT PROB40
TEMPO 2222/2304 7000 -RA BKN012
TEMPO 2304/2312 6000 -RADZ BKN009 PROB30
TEMPO 2304/2312 3000 RADZ BR BKN004

Related Locations
Nearby:
Farthest:NZBA: 11940 mi / 19216 km
Balclutha, NZ

Find:

   beyond  
but within

Other Information
Maps:
NOTAMs:
Links:
Sources:

  
flag of United Kingdom
flag of England
  

Sectional Chart

Flight Planning
at skyvector.com

Satellite Image

Google Maps Satellite View

 

Copyright © 2004-2014 Karl L. Swartz. All rights reserved.
The Great Circle Mapper name and logo are trademarks of the Great Circle Mapper.
All other trademarks mentioned herein belong to their respective owners.
Please see credits for attibutions and further copyright information.

  Follow gcmap on Facebook Follow gcmap on Twitter

hCard Microformat

Geo Microformat